Location: downtown San Diego
(32.7310°N, 117.1990°W)
Time: 18:14:17
(UTC-07:00)

Cosmos 1340 - Pass Details

Date: 19 May 2017
Orbit: 505 x 509 km, 81.2° (Epoch: 23 September)

Event Time Altitude Azimuth Distance (km) Brightness Sun altitude
Rises 20:40:18 0° 199° (SSW) 2,601 6.1 -11.2°
Reaches altitude 10° 20:42:28 10° 205° (SSW) 1,721 5.3 -11.6°
Maximum altitude 20:46:07 47° 280° (W) 682 3.8 -12.3°
Drops below altitude 10° 20:49:48 10° 355° (N) 1,735 5.9 -12.9°
Sets 20:52:00 0° 1° (N) 2,625 6.8 -13.3°
